Location: Celina Division
(33.3022°N, 96.7580°W)
Time: 14:29:04
(UTC+00:00)

Nadezhda 4 Rocket - Visible Passes

Search period start: 03 July 2022 00:00
Search period end: 13 July 2022 00:00
Orbit: 948 x 993 km, 82.9° (Epoch: 02 July)

Date Brightness Start Highest point End Pass type
(mag) Time Alt. Az. Time Alt. Az. Time Alt. Az.
06 Jul 6.5 10:21:09 10° SE 10:25:22 20° E 10:29:34 10° NE visible
07 Jul 5.6 10:43:27 10° SSE 10:49:02 37° E 10:54:35 10° NNE visible
09 Jul 6.6 09:49:00 10° ESE 09:52:10 15° E 09:55:21 10° NE visible
10 Jul 5.9 10:10:39 10° SE 10:15:47 28° E 10:20:54 10° NNE visible
11 Jul 4.8 10:33:34 10° SSE 10:39:32 54° E 10:45:28 10° NNE visible
12 Jul 6.8 09:17:53 10° E 09:19:02 11° E 09:20:09 10° ENE visible
12 Jul 4.0 10:57:16 10° S 11:03:24 81° W 11:09:33 10° N visible
